Location: ?????
(33.6267°N, 35.4675°E)
Time: 14:54:03
(UTC+00:00)

ATLAS 5 CENTAUR R/B - Pass Details

Date: 25 February 2020
Orbit: 542 x 1116 km, 63.4° (Epoch: 06 April)

Event Time Altitude Azimuth Distance (km) Brightness Sun altitude
Rises 03:23:52 0° 180° (S) 2,683 4.9 -10.8°
Reaches altitude 10° 03:26:20 10° 165° (SSE) 1,802 4.2 -10.3°
Maximum altitude 03:29:31 23° 112° (ESE) 1,204 4.1 -9.7°
Drops below altitude 10° 03:32:52 10° 59° (ENE) 1,905 5.0 -9.0°
Sets 03:35:33 0° 45° (NE) 2,881 5.6 -8.4°
